Weather in Gurlen

Uzbekistan     41°50′22″N   60°23′38″E
temp.,
°C
wind,
m/s
gust,
m/s
humid.,
%
clouds,
%
prec.,
mm/h
press.,
hPa
HPBL,
m
27 september, mon
mon2723:00+14wnw610682 1.7 1015744
02:00+14wnw59670 0.0 1017425
05:00+14wsw410630 0.0 1018323
08:00+14wsw47630 0.0 1019295
11:00+20wsw55410 0.0 10201219
14:00+23sw56310 0.0 10181810
17:00+23sw55280 0.0 10161836
20:00+19wsw33360 0.0 101622
28 september, tue
tue2823:00+17sw22390 0.0 101611
02:00+17ssw33400 0.0 101517
05:00+16sw33410 0.0 101520
08:00+17sw24395 0.0 101596
11:00+23wsw44260 0.0 10151248
14:00+26w44242 0.0 10141939
17:00+26nw44250 0.0 10131959
20:00+21nnw464033 0.0 1014101
29 september, wed
wed2923:00+19nne473665 0.0 1016145
02:00+16ene35475 0.0 101682
05:00+15ene34500 0.0 101754
08:00+16e22450 0.0 101884
11:00+21nne11300 0.0 1019865
14:00+24nw24255 0.0 10171882
17:00+25nnw34253 0.0 10172193
20:00+20nne46370 0.0 1018101
30 september, thu
thu3023:00+18ene34410 0.0 101968
02:00+15ene58514 0.0 1019195
05:00+14ene48556 0.0 1019183
08:00+14ene46525 0.0 1020193
11:00+21ene44345 0.0 1020711
14:00+24ne43280 0.0 10191475
17:00+24ne65280 0.0 10181495
20:00+19ne8124117 0.0 1019491
1 october, fri
fri123:00+15ne913471 0.0 1020488
02:00+13ne814445 0.0 1020462
05:00+12ne8134334 0.0 1021422
08:00+12ne81341100 0.0 1022468
11:00+14ne71039100 0.0 1023606
14:00+15ne8835100 0.0 1023843
17:00+14nne784497 0.0 1024669
20:00+11nne6766100 0.0 1026452